Location: Barnston
(51.8500°N, 0.4000°E)
Time: 20:11:53
(UTC+00:00)

NOSS 2-3 (D) - Visible Passes

Search period start: 22 April 2024 00:00
Search period end: 02 May 2024 00:00
Orbit: 492 x 1706 km, 63.3° (Epoch: 20 April)

Date Brightness Start Highest point End Pass type
(mag) Time Alt. Az. Time Alt. Az. Time Alt. Az.
22 Apr 4.6 01:28:38 10° NW 01:34:06 56° SW 01:37:01 34° S visible
22 Apr 6.2 03:21:07 10° W 03:24:10 14° WSW 03:24:10 14° WSW visible
22 Apr 6.1 21:01:00 10° NW 21:04:24 21° N 21:08:30 10° NE visible
22 Apr 5.5 22:51:45 10° NW 22:56:17 35° NNE 23:02:14 10° E visible
23 Apr 4.3 00:41:54 10° NW 00:47:20 80° SW 00:50:20 37° SE visible
23 Apr 5.8 02:33:08 10° WNW 02:37:32 22° WSW 02:37:32 22° WSW visible
23 Apr 6.0 20:13:53 10° WNW 20:17:11 21° N 20:21:07 10° NE visible
23 Apr 5.8 22:05:04 10° NW 22:09:13 28° NNE 22:14:30 10° E visible
23 Apr 4.5 23:55:14 10° NW 00:00:30 74° NE 00:04:04 30° ESE visible
24 Apr 5.3 01:45:53 10° WNW 01:51:04 33° WSW 01:51:17 33° SW visible
24 Apr 6.0 21:18:17 10° NW 21:22:04 24° NNE 21:26:44 10° ENE visible
24 Apr 4.9 23:08:36 10° NW 23:13:38 53° NE 23:18:01 21° ESE visible
25 Apr 4.8 00:58:56 10° NW 01:04:22 48° SW 01:05:15 45° SSW visible
25 Apr 6.0 20:31:21 10° NW 20:34:51 22° N 20:39:04 10° NE visible
25 Apr 5.3 22:21:58 10° NW 22:26:39 39° NNE 22:32:07 13° E visible
26 Apr 4.4 00:12:08 10° NW 00:17:36 70° SW 00:19:21 50° SSE visible
26 Apr 6.1 02:03:44 10° WNW 02:06:36 17° WSW 02:06:36 17° WSW visible
26 Apr 5.6 21:35:17 10° NW 21:39:35 31° NNE 21:45:07 10° E visible
26 Apr 4.4 23:25:26 10° NW 23:30:46 84° NE 23:33:33 38° SE visible
27 Apr 5.6 01:16:15 10° WNW 01:20:48 28° WSW 01:20:48 28° WSW visible
27 Apr 5.8 20:48:30 10° NW 20:52:26 25° NNE 20:57:19 10° ENE visible
27 Apr 4.7 22:38:45 10° NW 22:43:53 60° NE 22:47:49 25° ESE visible
28 Apr 5.0 00:29:11 10° WNW 00:34:33 41° SW 00:35:04 41° SW visible
28 Apr 5.9 20:01:37 10° NW 20:05:12 22° N 20:09:34 10° ENE visible
28 Apr 5.1 21:52:05 10° NW 21:56:55 44° NNE 22:02:07 15° E visible
28 Apr 4.6 23:42:18 10° NW 23:47:46 60° SW 23:49:23 48° S visible
29 Apr 6.3 01:34:25 10° W 01:36:38 15° W 01:36:38 15° W visible
29 Apr 5.5 21:05:24 10° NW 21:09:51 34° NNE 21:15:39 10° E visible
29 Apr 4.4 22:55:32 10° NW 23:00:56 86° SW 23:03:44 39° SE visible
30 Apr 5.8 00:46:37 10° WNW 00:51:00 24° WSW 00:51:00 24° WSW visible
30 Apr 5.7 20:18:38 10° NW 20:22:42 27° NNE 20:27:50 10° ENE visible
30 Apr 4.6 22:08:50 10° NW 22:14:02 68° NE 22:18:09 25° ESE visible
30 Apr 5.3 23:59:23 10° WNW 00:04:38 35° WSW 00:05:24 34° SW visible
01 May 4.9 21:22:08 10° NW 21:27:05 49° NE 21:32:34 15° ESE visible
01 May 4.8 23:12:25 10° NW 23:17:51 52° SW 23:19:50 40° S visible
